Regional Weather Roundup
Issued by NWS

Home | Current Version | Previous Version | Graphics & Text | Print | Product List | Glossary On
Versions: 1 2 3 4 5 6 7 8 9 10 11 12 13 14 15 16 17 18 19 20 21 22 23 24 25 26 27 28 29 30 31 32 33 34 35 36 37 38 39 40 41 42 43 44 45 46 47 48 49 50
000
ASUS43 KDTX 231810
RWRMI
MICHIGAN HOURLY REGIONAL WEATHER ROUNDUP
NATIONAL WEATHER SERVICE DETROIT/PONTIAC MI
100 PM EST FRI FEB 23 2018

NOTE: "FAIR" INDICATES FEW OR NO CLOUDS BELOW 12,000 FEET WITH NO
SIGNIFICANT WEATHER AND/OR OBSTRUCTION TO VISIBILITY.

MIZ047>049-052>055-059>063-066>070-074>076-081>083-231900-
SOUTHEAST LOWER MICHIGAN

CITY           SKY/WX    TMP DP  RH WIND       PRES   REMARKS
ADRIAN         CLOUDY    45  43  93 W12       30.11S
6HR MIN TEMP:  35; 6HR MAX TEMP:  45; 6HR PCP:  0.35;

ALMA           CLOUDY    40  40 100 SW5       30.06F FOG
6HR MIN TEMP:  33; 6HR MAX TEMP:  40;

ANN ARBOR      CLOUDY    46  45  96 SW12      30.08S
BAD AXE        CLOUDY    37  37 100 SW6       30.04F FOG     WCI  33
6HR MIN TEMP:  32; 6HR MAX TEMP:  38;

CARO           FOG       42  42  99 SW7       30.04F VSB 1
DETROIT CITY   CLOUDY    45  42  89 SW13G18   30.07F
6HR MIN TEMP:  35; 6HR MAX TEMP:  45; 6HR PCP:  0.05;

DETROIT        CLOUDY    46  43  89 SW12      30.09F
6HR MIN TEMP:  36; 6HR MAX TEMP:  46; 6HR PCP:  0.20;

FLINT          CLOUDY    44  43  96 SW10      30.06F
6HR MIN TEMP:  34; 6HR MAX TEMP:  44; 6HR PCP:  0.04;

GROSSE ILE     CLOUDY    38  37  97 S5        30.08F WCI  34
6HR MIN TEMP:  35; 6HR MAX TEMP:  39; 6HR PCP:  0.25;

HILLSDALE      CLOUDY    46  45  93 W13G20    30.10S
HOWELL         CLOUDY    44  44  98 SW13      30.07S FOG
6HR MIN TEMP:  34; 6HR MAX TEMP:  44; 6HR PCP:  0.02;


CITY           SKY/WX    TMP DP  RH WIND       PRES   REMARKS
JACKSON        CLOUDY    47  45  93 SW17      30.08S
6HR MIN TEMP:  35; 6HR MAX TEMP:  47; 6HR PCP:  0.08;

LAMBERTVILLE   CLOUDY    48  46  94 SW10G17   30.10S
6HR MIN TEMP:  35; 6HR MAX TEMP:  48;

LANSING        CLOUDY    44  43  96 SW15      30.08S FOG
6HR MIN TEMP:  35; 6HR MAX TEMP:  44; 6HR PCP:  0.12;

LAPEER         CLOUDY    45  44  97 W9        30.05F
6HR MIN TEMP:  34; 6HR MAX TEMP:  45; 6HR PCP:  0.01;

MASON          CLOUDY    46  42  88 W8        30.08S FOG
6HR MIN TEMP:  36; 6HR MAX TEMP:  46;

MONROE         CLOUDY    46  44  93 SW8       30.09S
6HR MIN TEMP:  34; 6HR MAX TEMP:  46; 6HR PCP:  0.29;

MT. CLEMENS    CLOUDY    42  42 100 SW5       30.05F FOG
6HR MIN TEMP:  34; 6HR MAX TEMP:  42; 6HR PCP:  0.07;

PONTIAC        CLOUDY    42  42 100 SW7       30.06F
6HR MIN TEMP:  34; 6HR MAX TEMP:  42; 6HR PCP:  0.05;

PORT HOPE        N/A     39  37  92 SW9       30.01F WCI  33
6HR MIN TEMP:  33; 6HR MAX TEMP:  39; 6HR PCP:  0.06;

PORT HURON     CLOUDY    41  39  93 S9        30.05F
TRI CITIES     FOG       38  37  97 SW8       30.05F VSB 1   WCI  32
6HR MIN TEMP:  34; 6HR MAX TEMP:  38; 6HR PCP:  0.09;

MIDLAND        CLOUDY    40  39  97 SW7       30.04F FOG     WCI  35
6HR MIN TEMP:  33; 6HR MAX TEMP:  40; 6HR PCP:  0.01;

TROY           CLOUDY    44  42  94 SW8       30.08F
SAGINAW HB     CLOUDY    39  37  93 SW8       30.05F FOG     WCI  34
$$
MIZ043>046-050>051-056>058-064>065-071>073-077>080-231900-
SOUTHWEST LOWER MICHIGAN

CITY           SKY/WX    TMP DP  RH WIND       PRES   REMARKS
BATTLE CREEK   CLOUDY    44  43  96 SW12      30.10S FOG
6HR MIN TEMP:  37; 6HR MAX TEMP:  44; 6HR PCP:  0.03;

BENTON HARBOR  CLOUDY    43  40  89 W16       30.15R FOG
6HR MIN TEMP:  39; 6HR MAX TEMP:  46; 6HR PCP:  0.08;

BIG RAPIDS     CLOUDY    39  37  92 W9        30.04F FOG     WCI  33
6HR MIN TEMP:  32; 6HR MAX TEMP:  39;

COLDWATER      CLOUDY    46  46 100 W14G21    30.11S FOG
6HR MIN TEMP:  36; 6HR MAX TEMP:  46;

FREMONT        CLOUDY    40  38  94 W9        30.08R WCI  34
6HR MIN TEMP:  32; 6HR MAX TEMP:  40;

HOLLAND        CLOUDY    42  40  92 W15G24    30.12R FOG
6HR MIN TEMP:  37; 6HR MAX TEMP:  45; 6HR PCP:  0.07;

GRAND RAPIDS   DRIZZLE   44  43  96 W21G26    30.09R FOG
6HR MIN TEMP:  36; 6HR MAX TEMP:  44; 6HR PCP:  0.11;

IONIA          CLOUDY    43  43 100 W15G21    30.06F FOG
6HR MIN TEMP:  34; 6HR MAX TEMP:  43; 6HR PCP:  0.02;

KALAMAZOO      CLOUDY    46  42  86 W16G23    30.12R
6HR MIN TEMP:  37; 6HR MAX TEMP:  46; 6HR PCP:  0.02;

LUDINGTON      CLOUDY    37  37 100 SW13      30.07S FOG     WCI  29
6HR MIN TEMP:  33; 6HR MAX TEMP:  39; 6HR PCP:  0.07;

MARSHALL       CLOUDY    44  44  99 SW13      30.10R FOG
6HR MIN TEMP:  35; 6HR MAX TEMP:  44; 6HR PCP:  0.02;

MOUNT PLEASANT CLOUDY    40  39  95 SW10      30.03F FOG     WCI  34
6HR MIN TEMP:  32; 6HR MAX TEMP:  40; 6HR PCP:  0.02;

MUSKEGON       CLOUDY    40  37  89 W14       30.11R FOG     WCI  32
6HR MIN TEMP:  35; 6HR MAX TEMP:  40; 6HR PCP:  0.07;

SOUTH HAVEN    CLOUDY    43  41  93 W12G18    30.14R FOG
$$
MIZ016>042-231900-
NORTHERN LOWER MICHIGAN

CITY           SKY/WX    TMP DP  RH WIND       PRES   REMARKS
ALPENA         CLOUDY    39  37  92 SW9       29.98F WCI  33
6HR MIN TEMP:  32; 6HR MAX TEMP:  39; 6HR PCP:  0.03;

BEAVER ISLAND  CLOUDY    35  35  98 SW13      29.98S FOG     WCI  27
6HR MIN TEMP:  31; 6HR MAX TEMP:  35;

BELLAIRE       CLOUDY    38  38 100 CALM      30.01S
6HR MIN TEMP:  33; 6HR MAX TEMP:  38;

CADILLAC       CLOUDY    37  37  99 SW10      30.00S FOG     WCI  30
CHARLEVOIX     CLOUDY    38  38 100 SW13G18   30.01F WCI  30
6HR MIN TEMP:  34; 6HR MAX TEMP:  38;

FRANKFORT      CLOUDY    38  38 100 SW9G18    30.03F FOG     WCI  31
GAYLORD        CLOUDY    36  36 100 SW12      29.96F WCI  28
6HR MIN TEMP:  31; 6HR MAX TEMP:  36; 6HR PCP:  0.02;

GRAYLING       CLOUDY    37  36  96 SW7       29.98F WCI  31
6HR MIN TEMP:  31; 6HR MAX TEMP:  37; 6HR PCP:  0.01;

HARBOR SPRINGS CLOUDY    35  35  99 SW10      29.97F WCI  27
HOUGHTON LAKE  CLOUDY    36  34  92 SW9       30.00F FOG     WCI  29
6HR MIN TEMP:  31; 6HR MAX TEMP:  36; 6HR PCP:  0.03;

MANISTEE       CLOUDY    40  37  89 SW13G23   30.05S WCI  32
OSCODA         CLOUDY    39  37  93 SW10      30.00F WCI  32
6HR MIN TEMP:  32; 6HR MAX TEMP:  39;

PELLSTON       CLOUDY    37  35  92 W10       29.97F FOG     WCI  30
6HR MIN TEMP:  30; 6HR MAX TEMP:  37; 6HR PCP:  0.07;

ROGERS CITY    CLOUDY    38  36  91 SW6       29.98F WCI  34
TRAVERSE CITY  DRIZZLE   40  37  89 SW6       30.00F FOG
6HR MIN TEMP:  35; 6HR MAX TEMP:  41; 6HR PCP:  0.03;

$$
MIZ007>008-015-231900-
EASTERN UPPER MICHIGAN

CITY           SKY/WX    TMP DP  RH WIND       PRES   REMARKS
KINROSS        MIX PCPN  34  33  96 SW6       29.96F FOG     WCI  29
6HR MIN TEMP:  25; 6HR MAX TEMP:  34; 6HR PCP: TRACE;

MACKINAC ISLAN CLOUDY    33  33 100 SW6       29.97S FOG     WCI  27
6HR MIN TEMP:  31; 6HR MAX TEMP:  33; 6HR PCP:  0.18;

NEWBERRY       CLOUDY    33  32  96 SW14      29.94S FOG     WCI  23
6HR MIN TEMP:  27; 6HR MAX TEMP:  33; 6HR PCP:  0.14;

S. S. MARIE    CLOUDY    35  32  88 S7        29.95F FOG     WCI  29
6HR MIN TEMP:  28; 6HR MAX TEMP:  35; 6HR PCP:  0.25;

MUNISING         N/A     37  33  85 SW7       29.93F WCI  32
6HR MIN TEMP:  25; 6HR MAX TEMP:  37; 6HR PCP:  0.14;

$$
MIZ004>006-011>014-085-231900-
CENTRAL UPPER MICHIGAN

CITY           SKY/WX    TMP DP  RH WIND       PRES   REMARKS
MANISTIQUE     CLOUDY    33  32  95 SW5       29.97S FOG     WCI  29
6HR MIN TEMP:  28; 6HR MAX TEMP:  33; 6HR PCP:  0.11;

ESCANABA       CLOUDY    37  32  82 SW8G17    29.97F WCI  31
6HR MIN TEMP:  31; 6HR MAX TEMP:  37; 6HR PCP:  0.17;

MENOMINEE      CLOUDY    38  35  89 W9G16     30.01S WCI  31
                                      6HR PCP:  0.02;

SAWYER-GWINN   CLOUDY    32  28  86 W8        29.93F WCI  25
$$
MIZ001>003-009>011-084-231900-
WESTERN UPPER MICHIGAN

CITY           SKY/WX    TMP DP  RH WIND       PRES   REMARKS
IRON MOUNTAIN  CLOUDY    35  30  82 W12       29.95R WCI  27
6HR MIN TEMP:  28; 6HR MAX TEMP:  35; 6HR PCP:  0.04;

HOUGHTON       CLOUDY    30  22  72 W18       29.93R WCI  18
6HR MIN TEMP:  25; 6HR MAX TEMP:  31; 6HR PCP:  0.08;

COPPER HARBOR    N/A     33  27  78 N9        29.92F WCI  25
6HR MIN TEMP:  27; 6HR MAX TEMP:  33; 6HR PCP:  0.17;

IRONWOOD       CLOUDY    28  24  85 W14       30.01R WCI  17
6HR MIN TEMP:  24; 6HR MAX TEMP:  29; 6HR PCP:  0.04;

$$

ABBREVIATIONS USED IN REMARKS
   TC - TEMPERATURE IN CELSIUS
  WCI - WIND CHILL INDEX
   HX - HEAT INDEX
  VSB - VISIBILITY





USA.gov is the U.S. government's official web portal to all federal, state and local government web resources and services.